This is the latest recevied weather packets stored in our database for station/object DM3DP. If no packets are shown the sender has not sent any weather packets the latest 10 day(s).
| Time | Temp. | Humidity | Pressure | Rain* | Wind** | Luminosity | Snow |
|---|---|---|---|---|---|---|---|
| 1777895995 | 21.11° C | 63% | 1011 hPa | 0 mm | - | 116 W/m² | - |
| 1777895664 | 21.11° C | 63% | 1011.1 hPa | 0 mm | - | 115 W/m² | - |
| 1777895334 | 21.11° C | 65% | 1011.1 hPa | 0 mm | - | 106 W/m² | - |
| 1777895004 | 21.11° C | 63% | 1011.1 hPa | 0 mm | - | 104 W/m² | - |
| 1777894674 | 21.11° C | 64% | 1011.1 hPa | 0 mm | - | 111 W/m² | - |
| 1777894344 | 21.11° C | 64% | 1011.1 hPa | 0 mm | - | 126 W/m² | - |
| 1777894015 | 21.11° C | 64% | 1011 hPa | 0 mm | - | 133 W/m² | - |
| 1777893685 | 21.11° C | 63% | 1011 hPa | 0 mm | - | 148 W/m² | - |
| 1777893355 | 21.11° C | 63% | 1011 hPa | 0 mm | - | 155 W/m² | - |
| 1777893025 | 21.67° C | 63% | 1011.1 hPa | 0 mm | - | 146 W/m² | - |
| 1777892694 | 21.67° C | 62% | 1011.1 hPa | 0 mm | - | 156 W/m² | - |
| 1777892367 | 21.67° C | 62% | 1011.2 hPa | 0 mm | - | 168 W/m² | - |
| 1777892034 | 21.67° C | 64% | 1011.3 hPa | 0 mm | - | 180 W/m² | - |
| 1777891704 | 21.67° C | 62% | 1011.3 hPa | 0 mm | - | 193 W/m² | - |
| 1777891374 | 21.67° C | 62% | 1011.3 hPa | 0 mm | - | 214 W/m² | - |
| 1777889064 | 21.11° C | 69% | 1011.4 hPa | 0 mm | - | 622 W/m² | - |
| 1777888735 | 21.11° C | 69% | 1011.4 hPa | 0 mm | - | 804 W/m² | - |
| 1777888404 | 20.56° C | 69% | 1011.5 hPa | 0 mm | - | 829 W/m² | - |
| 1777888075 | 20.56° C | 69% | 1011.5 hPa | 0 mm | - | 718 W/m² | - |
| 1777887745 | 20.56° C | 69% | 1011.6 hPa | 0 mm | - | 832 W/m² | - |
| 1777887414 | 20° C | 69% | 1011.6 hPa | 0 mm | - | 849 W/m² | - |
| 1777887085 | 20° C | 69% | 1011.6 hPa | 0 mm | - | 877 W/m² | - |
| 1777886754 | 20° C | 69% | 1011.6 hPa | 0 mm | - | 878 W/m² | - |
| 1777886425 | 19.44° C | 69% | 1011.6 hPa | 0 mm | - | 869 W/m² | - |
| 1777886094 | 19.44° C | 69% | 1011.6 hPa | 0 mm | - | 858 W/m² | - |
* Rain latest hour (hover to see other rain measurements)
** Current wind speed in m/s (hover to see current wind gust speed)